Quesnel,

9:05 AM PST on December 18, 2017 (GMT -0800)
Quesnel

Weather History for CYQZ - October, 2012

Change the Weather History Date:

Sunday, October 14, 2012

  Actual Average Record
Temperature  
Mean Temperature 55 °F -  
Max Temperature 66 °F 42 °F 66 °F (2012)
Min Temperature 44 °F 27 °F 21 °F (2011)
Degree Days  
Heating Degree Days 10    
Growing Degree Days 5 (Base 50)    
Moisture  
Dew Point 41 °F    
Average Humidity 61    
Maximum Humidity 93    
Minimum Humidity 35    
Precipitation  
Precipitation 0.00 in - - ()
Sea Level Pressure  
Sea Level Pressure 29.60 in    
Wind  
Wind Speed 9 mph ()    
Max Wind Speed 21 mph    
Max Gust Speed 30 mph    
Visibility 9.0 miles    
Events Rain    
Averages and records for this station are not official NWS values.
T = Trace of Precipitation, MM = Missing Value Source: Averaged Metar Reports

Daily Weather History Graph

Daily Weather History Graph

Search for Another Location

Airport or City:

Trip Planner

Search our weather history database for the weather conditions in past years. The results will help you decide how hot, cold, wet, or windy it might be!

Date:

Astronomy

Oct. 14, 2012 Rise Set
Actual Time 7:35 AM PDT 6:15 PM PDT
Civil Twilight 7:00 AM PDT 6:50 PM PDT
Nautical Twilight 6:20 AM PDT 7:29 PM PDT
Astronomical Twilight 5:40 AM PDT 8:10 PM PDT
Moon 6:40 AM PDT (10/14) 5:35 PM PDT (10/14)
Length of Visible Light 11h 49m
Length of Day
10h 39m
Waning Crescent, 1% of the Moon is Illuminated
Oct 14
Waning Crescent
Oct 15
New
Oct 21
First Quarter
Oct 29
Full
Nov 6
Last Quarter

Hourly Weather History & Observations

Time (PDT) Temp. Windchill Dew Point Humidity Pressure Visibility Wind Dir Wind Speed Gust Speed Precip Events Conditions
12:00 AM 44.6 °F 42.2 °F 39.2 °F 81% 29.84 in 9.0 mi South 4.6 mph - N/A   Overcast
1:00 AM 44.6 °F 43.1 °F 39.2 °F 81% 29.81 in 9.0 mi South 3.5 mph - N/A   Overcast
1:05 AM 44.6 °F 43.1 °F 39.2 °F 81% 29.81 in 9.0 mi SSE 3.5 mph - N/A Rain Light Rain
2:00 AM 44.6 °F 42.2 °F 42.8 °F 93% 29.76 in 8.0 mi SSE 4.6 mph - N/A Rain Light Rain
2:24 AM 50.0 °F - 44.6 °F 82% 29.74 in 9.0 mi SSE 11.5 mph 18.4 mph N/A   Overcast
3:00 AM 48.2 °F - 44.6 °F 87% 29.71 in 9.0 mi SSE 9.2 mph - N/A   Overcast
4:00 AM 51.8 °F - 44.6 °F 76% 29.65 in 9.0 mi SE 9.2 mph - N/A   Overcast
5:00 AM 53.6 °F - 44.6 °F 72% 29.60 in 9.0 mi SE 10.4 mph 24.2 mph N/A   Overcast
6:00 AM 53.6 °F - 44.6 °F 72% 29.57 in 9.0 mi SE 12.7 mph - N/A   Overcast
7:00 AM 53.6 °F - 44.6 °F 72% 29.54 in 9.0 mi SSE 11.5 mph - N/A   Overcast
8:00 AM 53.6 °F - 44.6 °F 72% 29.53 in 9.0 mi SSE 17.3 mph 26.5 mph N/A   Overcast
9:00 AM 55.4 °F - 44.6 °F 67% 29.53 in 9.0 mi South 17.3 mph 24.2 mph N/A   Mostly Cloudy
10:00 AM 57.2 °F - 44.6 °F 63% 29.51 in 9.0 mi South 16.1 mph 25.3 mph N/A   Mostly Cloudy
11:00 AM 59.0 °F - 46.4 °F 63% 29.51 in 9.0 mi South 16.1 mph - N/A   Scattered Clouds
12:00 PM 60.8 °F - 44.6 °F 55% 29.50 in 9.0 mi South 18.4 mph - N/A   Scattered Clouds
1:00 PM 62.6 °F - 44.6 °F 52% 29.49 in 9.0 mi South 17.3 mph 26.5 mph N/A   Scattered Clouds
2:00 PM 64.4 °F - 41.0 °F 42% 29.49 in 9.0 mi South 20.7 mph 29.9 mph N/A   Overcast
3:00 PM 64.4 °F - 41.0 °F 42% 29.49 in 9.0 mi South 15.0 mph 25.3 mph N/A   Scattered Clouds
4:00 PM 64.4 °F - 41.0 °F 42% 29.50 in 9.0 mi West 4.6 mph - N/A   Mostly Cloudy
4:57 PM 66.2 °F - 37.4 °F 35% 29.50 in 9.0 mi SSW 16.1 mph 26.5 mph N/A   Partly Cloudy
5:00 PM 66.2 °F - 37.4 °F 35% 29.50 in 9.0 mi SSW 10.4 mph 26.5 mph N/A   Clear
6:00 PM 62.6 °F - 37.4 °F 39% 29.54 in 9.0 mi South 9.2 mph - N/A   Partly Cloudy
7:00 PM 59.0 °F - 37.4 °F 45% 29.57 in 9.0 mi SSW 4.6 mph - N/A   Clear
8:00 PM 55.4 °F - 35.6 °F 47% 29.59 in 9.0 mi South 8.1 mph - N/A   Clear
9:00 PM 57.2 °F - 33.8 °F 41% 29.62 in 9.0 mi SSE 9.2 mph - N/A   Clear
10:00 PM 51.8 °F - 33.8 °F 50% 29.65 in 9.0 mi South 6.9 mph - N/A   Clear